This demonstration page uses our WeatherBlox Daily Observations layout. Learn more.

Left ArrowRight Arrow

53.62937, 11.41316

Hourly Observations for July 7, 2022

Temp ( °F °C ) Dew Point ( °F °C ) Humidity (%) Winds ( mph kmh ) Pressure ( in mb ) Visibility ( mi km ) Precip ( " mm )
6:20 am 06:20 Cloudy with Light Rain 59 15 57 14 94 94 VRB 5 7 29.91 1013 30 48 N/A
6:50 am 06:50 Mostly Cloudy with Light Rain 59 15 57 14 94 94 VRB 3 6 29.91 1013 6 9 N/A
7:20 am 07:20 Mostly Cloudy with Light Rain 59 15 59 15 100 100 VRB 5 7 29.88 1012 30 48 N/A
7:50 am 07:50 Mostly Cloudy with Light Rain 61 16 59 15 94 94 VRB 5 7 29.91 1013 30 48 N/A
8:20 am 08:20 Mostly Cloudy with Light Rain 61 16 59 15 94 94 VRB 5 7 29.91 1013 6 9 N/A
8:50 am 08:50 Mostly Cloudy 63 17 61 16 94 94 W 6 9 29.91 1013 30 48 N/A
9:20 am 09:20 Cloudy 64 18 61 16 88 88 W 7 11 29.91 1013 30 48 N/A
9:50 am 09:50 Mostly Cloudy 64 18 61 16 88 88 WNW 8 13 29.91 1013 30 48 N/A
10:20 am 10:20 Cloudy with Light Rain 64 18 59 15 83 83 W 9 15 29.91 1013 30 48 N/A
10:50 am 10:50 Mostly Cloudy with Rain 61 16 59 15 94 94 NNW 10 17 29.94 1014 2 3 N/A
11:20 am 11:20 Mostly Cloudy 63 17 61 16 94 94 NNW 9 15 29.94 1014 30 48 N/A
11:50 am 11:50 Mostly Cloudy 64 18 61 16 88 88 NNW 10 17 29.94 1014 30 48 N/A
12:20 pm 12:20 Cloudy 66 19 61 16 83 83 NW 8 13 29.97 1015 30 48 N/A
12:50 pm 12:50 Mostly Cloudy 68 20 59 15 73 73 WNW 10 17 29.97 1015 30 48 N/A
1:20 pm 13:20 Mostly Cloudy 68 20 57 14 69 69 WNW 13 20 29.97 1015 30 48 N/A
1:50 pm 13:50 Mostly Cloudy 68 20 57 14 69 69 WNW 12 19 29.97 1015 30 48 N/A
2:20 pm 14:20 Mostly Cloudy 66 19 57 14 73 73 WNW 14 22 29.97 1015 30 48 N/A
2:50 pm 14:50 Mostly Cloudy with Light Rain 63 17 59 15 88 88 NW 12 19 30.00 1016 5 8 N/A
3:20 pm 15:20 Mostly Cloudy with Showers Nearby 64 18 57 14 78 78 WNW 13 20 30.00 1016 30 48 N/A
3:50 pm 15:50 Mostly Cloudy 64 18 54 12 68 68 WNW 17 28 30.03 1017 30 48 N/A
4:20 pm 16:20 Mostly Cloudy 64 18 54 12 68 68 WNW 13 20 30.03 1017 30 48 N/A
4:50 pm 16:50 Mostly Cloudy 64 18 52 11 64 64 WNW 13 20 30.03 1017 30 48 N/A
5:20 pm 17:20 Mostly Cloudy 64 18 52 11 64 64 NW 14 22 30.06 1018 30 48 N/A
5:50 pm 17:50 Mostly Cloudy 64 18 52 11 64 64 NW 15 24 30.06 1018 30 48 N/A
6:20 pm 18:20 Mostly Cloudy 64 18 50 10 60 60 WNW 13 20 30.06 1018 30 48 N/A
6:50 pm 18:50 Partly Cloudy 66 19 52 11 60 60 WNW 10 17 30.06 1018 30 48 N/A
7:20 pm 19:20 Mostly Cloudy 64 18 52 11 64 64 WNW 13 20 30.06 1018 30 48 N/A
7:50 pm 19:50 Partly Cloudy 64 18 52 11 64 64 WNW 10 17 30.09 1019 30 48 N/A
8:20 pm 20:20 Mostly Sunny 63 17 52 11 68 68 WNW 13 20 30.09 1019 30 48 N/A
8:50 pm 20:50 Mostly Sunny 63 17 54 12 73 73 WNW 10 17 30.09 1019 7 11 N/A
9:20 pm 21:20 Mostly Sunny 61 16 54 12 77 77 W 8 13 30.12 1020 7 11 N/A
9:50 pm 21:50 Mostly Clear 61 16 54 12 77 77 W 8 13 30.12 1020 7 11 N/A
10:20 pm 22:20 Mostly Clear 61 16 54 12 77 77 WNW 10 17 30.15 1021 7 11 N/A
10:50 pm 22:50 Partly Cloudy 59 15 54 12 82 82 WNW 9 15 30.15 1021 30 48 N/A
11:20 pm 23:20 Partly Cloudy 59 15 54 12 82 82 WNW 9 15 30.18 1022 30 48 N/A
11:50 pm 23:50 Mostly Clear 57 14 54 12 88 88 WNW 8 13 30.18 1022 30 48 N/A

Powered by AerisWeather